CW2927 Weather Reports


Display with metric or nautical units.
time (UTC)temp
F
wind
direction
speed
MPH
gust
MPH
rain 1hr
in
rain 24hr
in
rain mn
in
humidity
%
barometer
mb
20260509224705 59 148 4.0 9.0 0.00 0.00 0.00 55 1006.7
20260509224205 59 129 5.0 17.0 0.00 0.00 0.00 54 1006.6
20260509222704 60 122 7.0 15.0 0.00 0.00 0.00 49 1006.5
20260509222204 61 130 6.0 13.0 0.00 0.00 0.00 49 1006.4
20260509220704 62 139 5.0 13.0 0.00 0.00 0.00 45 1006.4
20260509220204 62 133 6.0 14.0 0.00 0.00 0.00 44 1006.3
20260509214704 63 120 9.0 18.0 0.00 0.00 0.00 41 1006.3
20260509214205 63 134 6.0 20.0 0.00 0.00 0.00 40 1006.3
20260509212705 64 142 6.0 16.0 0.00 0.00 0.00 39 1006.3
20260509212205 64 145 8.0 18.0 0.00 0.00 0.00 37 1006.2
20260509210704 65 139 6.0 13.0 0.00 0.00 0.00 31 1006.1
20260509210204 66 114 5.0 12.0 0.00 0.00 0.00 30 1006.1
20260509204704 65 122 4.0 12.0 0.00 0.00 0.00 30 1006.1
20260509204205 65 139 5.0 17.0 0.00 0.00 0.00 30 1006.3
20260509202704 66 130 6.0 12.0 0.00 0.00 0.00 30 1006.3
20260509202205 66 161 6.0 15.0 0.00 0.00 0.00 29 1006.3
20260509200705 66 111 5.0 10.0 0.00 0.00 0.00 29 1006.4
20260509200204 66 157 4.0 16.0 0.00 0.00 0.00 29 1006.4
20260509194704 66 114 5.0 10.0 0.00 0.00 0.00 29 1006.4
20260509194204 66 154 3.0 14.0 0.00 0.00 0.00 29 1006.4
20260509192704 66 114 5.0 13.0 0.00 0.00 0.00 29 1006.6
20260509192204 66 129 7.0 12.0 0.00 0.00 0.00 29 1006.6
20260509190704 66 106 3.0 7.0 0.00 0.00 0.00 30 1006.7
20260509190205 66 145 5.0 12.0 0.00 0.00 0.00 32 1006.9
20260509184704 65 125 3.0 7.0 0.00 0.00 0.00 33 1007.2
20260509184204 65 163 3.0 9.0 0.00 0.00 0.00 32 1007.3
20260509182705 65 118 3.0 7.0 0.00 0.00 0.00 33 1007.7
20260509182205 65 172 3.0 10.0 0.00 0.00 0.00 35 1007.8
20260509180704 65 116 2.0 5.0 0.00 0.00 0.00 33 1007.9
20260509180205 64 120 3.0 10.0 0.00 0.00 0.00 34 1008.1
20260509174704 64 170 4.0 8.0 0.00 0.00 0.00 33 1008.4
20260509174204 64 128 3.0 10.0 0.00 0.00 0.00 32 1008.4
20260509172704 64 110 5.0 12.0 0.00 0.00 0.00 33 1008.6
20260509172204 64 170 3.0 12.0 0.00 0.00 0.00 35 1008.7
20260509170705 64 173 3.0 6.0 0.00 0.00 0.00 36 1008.9
20260509170205 63 189 3.0 10.0 0.00 0.00 0.00 35 1008.9
20260509164704 63 194 4.0 10.0 0.00 0.00 0.00 36 1009.2
20260509164204 63 199 3.0 15.0 0.00 0.00 0.00 34 1009.2
20260509162704 63 243 3.0 7.0 0.00 0.00 0.00 36 1009.5
20260509162205 63 178 4.0 9.0 0.00 0.00 0.00 34 1009.6
20260509160704 62 165 5.0 9.0 0.00 0.00 0.00 35 1009.7
20260509160205 62 169 5.0 9.0 0.00 0.00 0.00 36 1009.9
20260509154704 62 182 5.0 9.0 0.00 0.00 0.00 37 1010.1
20260509154204 61 219 3.0 12.0 0.00 0.00 0.00 38 1010.1
20260509152704 61 154 5.0 10.0 0.00 0.00 0.00 39 1010.3
20260509152204 61 168 5.0 12.0 0.00 0.00 0.00 36 1010.2
20260509150704 60 158 5.0 10.0 0.00 0.00 0.00 37 1010.3
20260509150204 60 160 5.0 13.0 0.00 0.00 0.00 39 1010.3
20260509144704 59 139 3.0 9.0 0.00 0.00 0.00 42 1010.4
20260509144204 59 121 5.0 12.0 0.00 0.00 0.00 40 1010.4
20260509142704 58 196 3.0 8.0 0.00 0.00 0.00 42 1010.5
20260509142204 58 179 5.0 12.0 0.00 0.00 0.00 43 1010.5
20260509140706 57 166 6.0 12.0 0.00 0.00 0.00 43 1010.7
20260509140204 57 181 5.0 12.0 0.00 0.00 0.00 43 1010.7
20260509134704 55 185 4.0 8.0 0.00 0.00 0.00 47 1010.8
20260509134204 55 179 5.0 12.0 0.00 0.00 0.00 47 1010.9
20260509132704 55 175 5.0 14.0 0.00 0.00 0.00 47 1011.0
20260509132204 55 189 3.0 10.0 0.00 0.00 0.00 50 1011.0
20260509130204 52 185 5.0 12.0 0.00 0.00 0.00 51 1011.0
20260509124204 51 187 4.0 15.0 0.00 0.00 0.00 54 1011.1
20260509122204 49 172 5.0 12.0 0.00 0.00 0.00 56 1011.2
20260509120704 47 171 5.0 8.0 0.00 0.00 0.00 61 1011.2
20260509120204 46 170 3.0 8.0 0.00 0.00 0.00 62 1011.2
20260509114704 45 165 3.0 9.0 0.00 0.00 0.00 63 1011.2
20260509114204 45 155 4.0 7.0 0.00 0.00 0.00 64 1011.2
20260509112704 43 167 2.0 3.0 0.00 0.00 0.00 68 1011.1
20260509112203 43 167 4.0 6.0 0.00 0.00 0.00 67 1011.2
20260509110704 42 168 3.0 5.0 0.00 0.00 0.00 70 1011.1
20260509110204 41 167 2.0 3.0 0.00 0.00 0.00 70 1011.1
20260509104704 41 167 2.0 3.0 0.00 0.00 0.00 72 1010.9
20260509104204 40 167 2.0 3.0 0.00 0.00 0.00 73 1010.9
20260509102204 39 167 1.0 3.0 0.00 0.00 0.00 76 1010.6
20260509100704 38 167 2.0 3.0 0.00 0.00 0.00 77 1010.6
20260509100204 38 167 1.0 3.0 0.00 0.00 0.00 77 1010.4
20260509094704 37 167 1.0 3.0 0.00 0.00 0.00 78 1010.2
20260509094204 37 167 1.0 3.0 0.00 0.00 0.00 78 1010.1
20260509092704 38 167 1.0 2.0 0.00 0.00 0.00 77 1010.1
20260509092204 38 167 1.0 2.0 0.00 0.00 0.00 77 1010.1
20260509090704 39 167 1.0 2.0 0.00 0.00 0.00 75 1010.2
20260509090204 39 167 1.0 3.0 0.00 0.00 0.00 74 1010.2
20260509084704 40 167 1.0 3.0 0.00 0.00 0.00 74 1010.2
20260509084204 40 167 1.0 3.0 0.00 0.00 0.00 74 1010.2
20260509082704 41 167 2.0 3.0 0.00 0.00 0.00 73 1010.3
20260509082204 41 167 1.0 3.0 0.00 0.00 0.00 73 1010.3
20260509080704 41 167 2.0 3.0 0.00 0.00 0.00 72 1010.3
20260509080204 41 167 2.0 3.0 0.00 0.00 0.00 72 1010.3
20260509074205 42 168 2.0 3.0 0.00 0.00 0.00 72 1010.2
20260509072705 42 165 2.0 3.0 0.00 0.00 0.00 71 1010.2
20260509072205 41 167 2.0 5.0 0.00 0.00 0.00 72 1010.2
20260509070705 41 167 3.0 5.0 0.00 0.00 0.00 74 1010.1
20260509070205 41 170 2.0 5.0 0.00 0.00 0.00 74 1010.0
20260509064705 40 170 2.0 3.0 0.00 0.00 0.00 75 1010.0
20260509064205 40 170 2.0 3.0 0.00 0.00 0.00 76 1010.0
20260509062705 39 171 1.0 2.0 0.00 0.00 0.00 78 1009.9
20260509062205 39 171 1.0 3.0 0.00 0.00 0.00 77 1010.0
20260509060705 39 171 1.0 2.0 0.00 0.00 0.00 78 1010.0
20260509060205 39 171 1.0 2.0 0.00 0.00 0.00 77 1010.0
20260509054705 40 171 1.0 2.0 0.00 0.00 0.00 77 1010.1
20260509054205 40 171 1.0 2.0 0.00 0.00 0.00 77 1010.1
20260509052705 40 171 1.0 2.0 0.00 0.00 0.00 76 1010.1
20260509052205 40 171 1.0 2.0 0.00 0.00 0.00 76 1010.1
20260509050705 41 171 1.0 2.0 0.00 0.00 0.00 75 1010.1
20260509050205 41 171 1.0 3.0 0.00 0.00 0.00 75 1010.1
20260509044705 41 171 1.0 3.0 0.00 0.00 0.00 75 1010.0
20260509044204 41 171 1.0 3.0 0.00 0.00 0.00 75 1010.1
20260509042704 40 171 1.0 3.0 0.00 0.00 0.00 76 1010.0
20260509042205 40 171 2.0 3.0 0.00 0.00 0.00 76 1010.0
20260509040704 40 171 1.0 2.0 0.00 0.00 0.00 77 1009.9
20260509040204 40 171 1.0 2.0 0.00 0.00 0.00 77 1009.8
20260509034705 40 171 1.0 1.0 0.00 0.00 0.00 75 1009.7
20260509034205 41 171 1.0 3.0 0.00 0.00 0.00 74 1009.7
20260509032705 41 171 2.0 3.0 0.00 0.00 0.00 73 1009.7
20260509032205 42 171 1.0 3.0 0.00 0.00 0.00 72 1009.6
20260509030708 42 171 1.0 3.0 0.00 0.00 0.00 71 1009.6
20260509030205 43 171 2.0 3.0 0.00 0.00 0.00 71 1009.6
20260509024705 43 171 2.0 3.0 0.00 0.00 0.00 69 1009.6
20260509024205 44 171 2.0 6.0 0.00 0.00 0.00 69 1009.6
20260509022705 44 173 2.0 3.0 0.00 0.00 0.00 68 1009.5
20260509022205 44 173 2.0 5.0 0.00 0.00 0.00 68 1009.6
20260509020704 45 175 3.0 6.0 0.00 0.00 0.00 67 1009.5
20260509020204 45 176 2.0 3.0 0.00 0.00 0.00 68 1009.5
20260509014704 45 175 2.0 5.0 0.00 0.00 0.00 68 1009.4
20260509014205 45 180 2.0 5.0 0.00 0.00 0.00 68 1009.3
20260509012704 45 180 1.0 3.0 0.00 0.00 0.00 68 1009.2
20260509012205 45 180 1.0 3.0 0.00 0.00 0.00 67 1009.2
20260509010705 46 180 2.0 3.0 0.00 0.00 0.00 66 1009.0
20260509010205 46 180 2.0 5.0 0.00 0.00 0.00 65 1009.0
20260509004704 46 186 2.0 3.0 0.00 0.00 0.00 64 1008.8
20260509004204 47 186 2.0 3.0 0.00 0.00 0.00 63 1008.7
20260509002705 47 186 2.0 3.0 0.00 0.00 0.00 63 1008.5
20260509002205 47 187 2.0 6.0 0.00 0.00 0.00 63 1008.5
20260509000704 48 192 2.0 3.0 0.00 0.00 0.00 62 1008.3
20260509000204 48 193 2.0 3.0 0.00 0.00 0.00 61 1008.2
20260508234705 48 194 1.0 3.0 0.00 0.00 0.00 59 1008.2
20260508234205 48 194 1.0 5.0 0.00 0.00 0.00 59 1008.2
20260508232705 49 219 3.0 6.0 0.00 0.00 0.00 58 1008.1
20260508232204 49 219 4.0 10.0 0.00 0.00 0.00 59 1008.1
20260508230704 50 169 3.0 12.0 0.00 0.00 0.00 57 1008.2
20260508230204 50 198 3.0 9.0 0.00 0.00 0.00 56 1008.2